User: anonymous   Login
Location: Unspecified
(0.0000°N, 0.0000°E)
Time: 18:39:49
(UTC+00:00)
Language:

Aussat K1 - Orbit

View from above orbital plane
View from above orbital plane
View from above satellite
View from above satellite

Ground track
Ground track

The orbit data is extracted from the following two-line orbital elements,

1 15993U 85076B   18019.10727128  .00000004  00000-0  00000+0 0  9993
2 15993  15.3192   5.0068 0008395 293.8837 234.8171  0.99765644 88949
Epoch (UTC): 19 January 2018 02:34:28
Eccentricity: 0.0008395
inclination: 15.3192°
perigee height: 35893 km
apogee height: 35964 km
right ascension of ascending node: 5.0068°
argument of perigee: 293.8837°
revolutions per day: 0.99765644
mean anomaly at epoch: 234.8171°
orbit number at epoch: 8894

The dashed part of the orbit path shows where the satellite is in the earth's shadow,  

DLR